Weather History for Buffalo, NY

Change the Weather History Date:

Monday, February 11, 2013

  Actual Average Record
Temperature  
Mean Temperature 41 °F 26 °F  
Max Temperature 49 °F 32 °F 68 °F (1932)
Min Temperature 32 °F 19 °F -13 °F (1885)
Degree Days  
Heating Degree Days 24 40  
Month to date heating degree days 468 440  
Since 1 July heating degree days 3706 4099  
Cooling Degree Days 0 0  
Month to date cooling degree days 0 0  
Year to date cooling degree days 0 0  
Moisture  
Dew Point 31 °F    
Average Humidity 70    
Maximum Humidity 92    
Minimum Humidity 48    
Precipitation  
Precipitation 0.18 in 0.09 in 1.49 in (1876)
Month to date precipitation 1.03 0.97  
Year to date precipitation 3.53 4.15  
Snow  
Snow 0.40 in 0.60 in 5.80 in (1921)
Month to date snowfall 17.6 7.3  
Since 1 July snowfall 45.8 68.8  
Snow Depth 3.00 in    
Sea Level Pressure  
Sea Level Pressure 29.72 in    
Wind  
Wind Speed 20 mph (SW)    
Max Wind Speed 39 mph    
Max Gust Speed 56 mph    
Visibility 8 miles    
Events Rain , Snow    
T = Trace of Precipitation, MM = Missing Value Source: NWS Daily Summary

Daily Weather History Graph

Daily Weather History Graph

Search for Another Location

Airport:

Trip Planner

Search our weather history database for the weather conditions in past years. The results will help you decide how hot, cold, wet, or windy it might be!

Date:

Astronomy

Feb. 11, 2013 Rise Set
Actual Time 7:17 AM EST 5:41 PM EST
Civil Twilight 6:48 AM EST 6:10 PM EST
Nautical Twilight 6:14 AM EST 6:44 PM EST
Astronomical Twilight 5:41 AM EST 7:17 PM EST
Moon 7:37 AM EST (2/11) 7:40 PM EST (2/11)
Length of Visible Light 11h 22m
Length of Day
10h 23m
Waxing Crescent, 3% of the Moon is Illuminated
Feb 11
Waxing Crescent
Feb 17
First Quarter
Feb 25
Full
Mar 4
Last Quarter
Mar 11
New

Hourly Weather History & Observations

Time (EST) Temp. Windchill Dew Point Humidity Pressure Visibility Wind Dir Wind Speed Gust Speed Precip Events Conditions
12:23 AM 39.2 °F 31.2 °F 21.2 °F 49% 29.90 in 10.0 mi South 13.8 mph - 0.00 in   Overcast
12:54 AM 39.9 °F 32.1 °F 21.9 °F 49% 29.89 in 10.0 mi SSE 13.8 mph - 0.00 in   Overcast
1:54 AM 39.9 °F 32.9 °F 21.9 °F 49% 29.85 in 10.0 mi SSE 11.5 mph - N/A   Overcast
2:54 AM 41.0 °F 34.3 °F 25.0 °F 53% 29.85 in 10.0 mi South 11.5 mph - 0.00 in Rain Light Rain
3:32 AM 37.4 °F 29.3 °F 28.4 °F 70% 29.81 in 5.0 mi SSW 12.7 mph - 0.04 in Rain Light Rain
3:54 AM 36.0 °F 28.5 °F 30.9 °F 82% 29.81 in 7.0 mi South 10.4 mph - 0.06 in Rain Light Rain
4:54 AM 36.0 °F 29.0 °F 33.1 °F 89% 29.78 in 5.0 mi South 9.2 mph - 0.02 in Rain Light Rain
5:17 AM 35.6 °F 27.5 °F 33.8 °F 93% 29.75 in 2.5 mi South 11.5 mph - 0.01 in Snow Light Snow
5:29 AM 37.4 °F 28.9 °F 35.6 °F 93% 29.75 in 4.0 mi South 13.8 mph - 0.04 in Rain Rain
5:54 AM 37.9 °F 29.6 °F 35.1 °F 89% 29.76 in 8.0 mi South 13.8 mph - 0.06 in Rain Light Rain
6:54 AM 39.2 °F 31.6 °F 35.6 °F 87% 29.71 in 10.0 mi South 12.7 mph - N/A   Overcast
7:54 AM 41.0 °F 33.1 °F 37.0 °F 86% 29.71 in 10.0 mi SSW 15.0 mph - N/A   Overcast
8:54 AM 43.0 °F 35.4 °F 37.9 °F 82% 29.70 in 10.0 mi SSW 16.1 mph 25.3 mph 0.01 in   Mostly Cloudy
9:21 AM 42.8 °F 35.4 °F 37.4 °F 81% 29.66 in 10.0 mi SSW 15.0 mph 25.3 mph N/A   Mostly Cloudy
9:54 AM 45.0 °F 37.9 °F 39.0 °F 80% 29.66 in 10.0 mi SSW 16.1 mph - N/A   Scattered Clouds
10:54 AM 46.0 °F 38.3 °F 37.9 °F 73% 29.63 in 10.0 mi SSW 20.7 mph 29.9 mph N/A   Scattered Clouds
11:54 AM 48.0 °F - 39.0 °F 71% 29.59 in 10.0 mi SSW 17.3 mph - N/A   Mostly Cloudy
12:30 PM 46.4 °F 37.0 °F 37.4 °F 71% 29.58 in 2.0 mi West 31.1 mph 41.4 mph 0.00 in Rain Heavy Rain
12:35 PM 42.8 °F 33.5 °F 37.4 °F 81% 29.58 in 2.5 mi WSW 23.0 mph 41.4 mph 0.02 in Rain Heavy Rain
12:39 PM 41.0 °F 30.9 °F 35.6 °F 81% 29.59 in 5.0 mi WSW 24.2 mph 38.0 mph 0.02 in Rain Light Rain
12:54 PM 39.9 °F 30.2 °F 34.0 °F 79% 29.62 in 7.0 mi WSW 20.7 mph 31.1 mph 0.02 in Rain Light Rain
1:54 PM 37.9 °F 27.9 °F 32.0 °F 79% 29.63 in 10.0 mi SW 19.6 mph 32.2 mph 0.01 in   Overcast
2:54 PM 37.0 °F 25.6 °F 28.9 °F 73% 29.65 in 10.0 mi SW 24.2 mph 39.1 mph N/A   Overcast
3:54 PM 36.0 °F 23.7 °F 27.0 °F 70% 29.68 in 10.0 mi WSW 26.5 mph 41.4 mph N/A   Overcast
4:54 PM 35.1 °F 21.8 °F 27.0 °F 72% 29.70 in 10.0 mi WSW 29.9 mph 43.7 mph N/A   Overcast
5:54 PM 35.1 °F 22.0 °F 26.1 °F 70% 29.70 in 10.0 mi WSW 28.8 mph 41.4 mph 0.00 in Snow Light Snow
6:54 PM 35.1 °F 22.0 °F 26.1 °F 70% 29.73 in 10.0 mi SW 28.8 mph 41.4 mph 0.00 in Snow Light Snow
7:48 PM 35.6 °F 23.0 °F 26.6 °F 70% 29.72 in 10.0 mi WSW 27.6 mph 43.7 mph 0.00 in Snow Light Snow
7:54 PM 35.1 °F 22.2 °F 26.1 °F 70% 29.74 in 10.0 mi SW 27.6 mph 43.7 mph 0.00 in Snow Light Snow
8:54 PM 34.0 °F 21.3 °F 27.0 °F 75% 29.75 in 10.0 mi WSW 25.3 mph 38.0 mph 0.00 in   Overcast
9:54 PM 34.0 °F 21.5 °F 27.0 °F 75% 29.74 in 10.0 mi SW 24.2 mph 39.1 mph 0.00 in Snow Light Snow
10:54 PM 34.0 °F 21.3 °F 27.0 °F 75% 29.73 in 7.0 mi WSW 25.3 mph 34.5 mph 0.00 in Snow Light Snow
11:15 PM 33.8 °F 20.3 °F 28.4 °F 81% 29.72 in 1.5 mi SW 28.8 mph 39.1 mph 0.00 in Snow Light Snow
11:26 PM 33.8 °F 21.0 °F 28.4 °F 81% 29.72 in 1.0 mi WSW 25.3 mph 35.7 mph 0.00 in Snow Light Snow
11:41 PM 32.0 °F 19.2 °F 28.4 °F 87% 29.72 in 1.0 mi WSW 23.0 mph 39.1 mph 0.00 in Snow Light Snow
11:54 PM 32.0 °F 18.4 °F 28.9 °F 88% 29.74 in 1.0 mi WSW 26.5 mph 38.0 mph 0.00 in Snow Light Snow